| time (UTC) | temp C | wind direction | speed KPH | gust KPH | rain 1hr cm | rain 24hr cm | rain mn cm | humidity % | barometer mb |
| 20260507074720 | 12 | 289 | 6.4 | 12.9 | 0.18 | 0.33 | 0.18 | 90 | 1006.5 |
| 20260507073039 | 12 | 295 | 3.2 | 11.3 | 0.00 | 0.15 | 0.00 | 91 | 1005.5 |
| 20260507071400 | 12 | 300 | 3.2 | 11.3 | 0.00 | 0.15 | 0.00 | 94 | 1005.5 |
| 20260507065721 | 13 | 272 | 1.6 | 11.3 | 0.00 | 0.15 | 0.00 | 95 | 1005.8 |
| 20260507064038 | 13 | 289 | 1.6 | 6.4 | 0.00 | 0.15 | 0.00 | 95 | 1005.6 |
| 20260507062358 | 13 | 240 | 0.0 | 1.6 | 0.00 | 0.15 | 0.00 | 95 | 1005.6 |
| 20260507060719 | 13 | 258 | 3.2 | 8.0 | 0.00 | 0.15 | 0.00 | 95 | 1005.9 |
| 20260507055039 | 13 | 272 | 1.6 | 4.8 | 0.00 | 0.15 | 0.00 | 95 | 1006.0 |
| 20260507053359 | 13 | 281 | 1.6 | 6.4 | 0.00 | 0.15 | 0.00 | 95 | 1006.3 |
| 20260507051720 | 13 | 247 | 1.6 | 4.8 | 0.00 | 0.15 | 0.00 | 95 | 1006.2 |
| 20260507050039 | 13 | 242 | 1.6 | 6.4 | 0.00 | 0.15 | 0.00 | 95 | 1006.3 |
| 20260507044358 | 13 | 248 | 1.6 | 4.8 | 0.00 | 0.15 | 0.00 | 95 | 1006.4 |
| 20260507041038 | 13 | 262 | 1.6 | 4.8 | 0.00 | 0.15 | 0.00 | 95 | 1006.3 |
| 20260507035359 | 13 | 242 | 3.2 | 8.0 | 0.00 | 0.15 | 0.15 | 95 | 1006.4 |
| 20260507033718 | 13 | 251 | 4.8 | 12.9 | 0.00 | 0.15 | 0.15 | 95 | 1006.7 |
| 20260507032038 | 12 | 242 | 4.8 | 9.7 | 0.00 | 0.15 | 0.15 | 95 | 1006.4 |
| 20260507030359 | 12 | 239 | 6.4 | 12.9 | 0.00 | 0.15 | 0.15 | 95 | 1006.2 |
| 20260507024718 | 12 | 244 | 4.8 | 12.9 | 0.00 | 0.15 | 0.15 | 95 | 1006.2 |
| 20260507021358 | 12 | 211 | 4.8 | 11.3 | 0.00 | 0.15 | 0.15 | 94 | 1006.1 |
| 20260507015718 | 13 | 223 | 3.2 | 11.3 | 0.00 | 0.15 | 0.15 | 94 | 1006.6 |
| 20260507014038 | 13 | 230 | 4.8 | 12.9 | 0.00 | 0.15 | 0.15 | 94 | 1006.7 |
| 20260507012358 | 13 | 225 | 4.8 | 14.5 | 0.00 | 0.15 | 0.15 | 94 | 1006.8 |
| 20260507010718 | 13 | 241 | 6.4 | 14.5 | 0.00 | 0.15 | 0.15 | 94 | 1006.9 |
| 20260507005041 | 13 | 247 | 4.8 | 14.5 | 0.03 | 0.15 | 0.15 | 94 | 1006.9 |
| 20260507003359 | 13 | 243 | 6.4 | 17.7 | 0.05 | 0.15 | 0.15 | 94 | 1006.9 |
| 20260507001718 | 13 | 225 | 6.4 | 16.1 | 0.05 | 0.15 | 0.15 | 94 | 1006.7 |
| 20260507000038 | 13 | 235 | 6.4 | 19.3 | 0.03 | 0.13 | 0.13 | 94 | 1006.6 |
| 20260506231038 | 13 | 234 | 4.8 | 19.3 | 0.05 | 0.10 | 0.10 | 93 | 1007.0 |
| 20260506225358 | 13 | 209 | 4.8 | 12.9 | 0.05 | 0.10 | 0.10 | 92 | 1006.7 |
| 20260506223720 | 13 | 214 | 4.8 | 14.5 | 0.05 | 0.10 | 0.10 | 92 | 1006.8 |
| 20260506222041 | 13 | 209 | 4.8 | 14.5 | 0.03 | 0.08 | 0.08 | 91 | 1007.2 |
| 20260506214720 | 14 | 232 | 6.4 | 19.3 | 0.00 | 0.05 | 0.05 | 90 | 1007.4 |
| 20260506211359 | 14 | 229 | 4.8 | 16.1 | 0.03 | 0.05 | 0.05 | 89 | 1007.5 |
| 20260506205717 | 14 | 237 | 6.4 | 16.1 | 0.05 | 0.05 | 0.05 | 89 | 1007.6 |
| 20260506204039 | 14 | 237 | 8.0 | 19.3 | 0.05 | 0.05 | 0.05 | 89 | 1007.9 |
| 20260506200717 | 15 | 211 | 6.4 | 20.9 | 0.03 | 0.03 | 0.03 | 87 | 1008.0 |
| 20260506195038 | 16 | 219 | 6.4 | 19.3 | 0.00 | 0.00 | 0.00 | 82 | 1008.2 |
| 20260506193357 | 16 | 237 | 8.0 | 20.9 | 0.00 | 0.00 | 0.00 | 78 | 1008.1 |
| 20260506190038 | 17 | 218 | 8.0 | 25.7 | 0.00 | 0.00 | 0.00 | 76 | 1008.1 |
| 20260506184359 | 17 | 211 | 8.0 | 19.3 | 0.00 | 0.00 | 0.00 | 74 | 1008.3 |
| 20260506182717 | 17 | 217 | 8.0 | 20.9 | 0.00 | 0.00 | 0.00 | 72 | 1008.3 |
| 20260506181038 | 18 | 235 | 9.7 | 38.6 | 0.00 | 0.00 | 0.00 | 72 | 1008.5 |
| 20260506175357 | 18 | 232 | 9.7 | 24.1 | 0.00 | 0.00 | 0.00 | 70 | 1009.0 |
| 20260506173718 | 18 | 231 | 9.7 | 25.7 | 0.00 | 0.00 | 0.00 | 69 | 1009.2 |
| 20260506172038 | 19 | 238 | 9.7 | 30.6 | 0.00 | 0.00 | 0.00 | 69 | 1009.1 |
| 20260506164719 | 18 | 228 | 9.7 | 22.5 | 0.00 | 0.00 | 0.00 | 69 | 1009.5 |
| 20260506161358 | 19 | 242 | 9.7 | 33.8 | 0.00 | 0.00 | 0.00 | 68 | 1009.8 |
| 20260506155718 | 20 | 221 | 8.0 | 19.3 | 0.00 | 0.00 | 0.00 | 68 | 1009.9 |
| 20260506154037 | 19 | 202 | 8.0 | 17.7 | 0.00 | 0.00 | 0.00 | 69 | 1010.4 |
| 20260506152357 | 18 | 212 | 8.0 | 22.5 | 0.00 | 0.00 | 0.00 | 70 | 1010.5 |
| 20260506150717 | 18 | 220 | 8.0 | 19.3 | 0.00 | 0.00 | 0.00 | 71 | 1010.7 |
| 20260506141718 | 18 | 193 | 6.4 | 25.7 | 0.00 | 0.00 | 0.00 | 69 | 1010.3 |
| 20260506140038 | 19 | 212 | 6.4 | 19.3 | 0.00 | 0.00 | 0.00 | 69 | 1010.4 |
| 20260506131039 | 16 | 222 | 6.4 | 22.5 | 0.00 | 0.00 | 0.00 | 78 | 1010.9 |
| 20260506123718 | 15 | 201 | 6.4 | 19.3 | 0.00 | 0.00 | 0.00 | 81 | 1010.7 |
| 20260506122040 | 15 | 231 | 4.8 | 16.1 | 0.00 | 0.00 | 0.00 | 84 | 1011.1 |
| 20260506120357 | 15 | 230 | 6.4 | 17.7 | 0.00 | 0.00 | 0.00 | 83 | 1011.2 |
| 20260506114717 | 15 | 212 | 8.0 | 20.9 | 0.00 | 0.00 | 0.00 | 84 | 1011.3 |
| 20260506113039 | 15 | 224 | 6.4 | 17.7 | 0.00 | 0.00 | 0.00 | 85 | 1011.3 |
| 20260506111358 | 14 | 202 | 4.8 | 11.3 | 0.00 | 0.00 | 0.00 | 86 | 1011.3 |
| 20260506104042 | 13 | 224 | 4.8 | 17.7 | 0.00 | 0.00 | 0.00 | 87 | 1011.4 |
| 20260506102357 | 13 | 208 | 6.4 | 14.5 | 0.00 | 0.00 | 0.00 | 87 | 1011.2 |
| 20260506100719 | 13 | 212 | 4.8 | 12.9 | 0.00 | 0.00 | 0.00 | 88 | 1011.2 |
| 20260506093358 | 13 | 221 | 4.8 | 16.1 | 0.00 | 0.00 | 0.00 | 87 | 1011.0 |
| 20260506091718 | 13 | 234 | 4.8 | 11.3 | 0.00 | 0.00 | 0.00 | 87 | 1011.1 |
| 20260506090037 | 13 | 237 | 6.4 | 17.7 | 0.00 | 0.00 | 0.00 | 86 | 1011.1 |
| 20260506084358 | 13 | 239 | 6.4 | 14.5 | 0.00 | 0.00 | 0.00 | 86 | 1011.3 |
| 20260506082717 | 14 | 253 | 6.4 | 20.9 | 0.00 | 0.00 | 0.00 | 86 | 1011.1 |
| 20260506081039 | 14 | 236 | 6.4 | 27.4 | 0.00 | 0.00 | 0.00 | 85 | 1011.2 |